Doha, Qatar

2:09 AM +03 on June 24, 2017 (GMT +0300)
Doha International

Weather History for OTBD - January, 2013

Change the Weather History Date:

Thursday, January 3, 2013

  Actual Average Record
Temperature  
Mean Temperature 72 °F -  
Max Temperature 80 °F 71 °F 84 °F (2008)
Min Temperature 63 °F 55 °F 50 °F (2007)
Cooling Degree Days 6    
Growing Degree Days 22 (Base 50)    
Moisture  
Dew Point 58 °F    
Average Humidity 64    
Maximum Humidity 83    
Minimum Humidity 28    
Precipitation  
Precipitation 0.00 in 0.02 in - ()
Sea Level Pressure  
Sea Level Pressure 30.10 in    
Wind  
Wind Speed 6 mph ()    
Max Wind Speed 13 mph    
Max Gust Speed -    
Visibility 5.5 miles    
Events      
Averages and records for this station are not official NWS values.
T = Trace of Precipitation, MM = Missing Value Source: Averaged Metar Reports

Daily Weather History Graph

Daily Weather History Graph

Search for Another Location

Airport or City:

Trip Planner

Search our weather history database for the weather conditions in past years. The results will help you decide how hot, cold, wet, or windy it might be!

Date:

Astronomy

Jan. 03, 2013 Rise Set
Actual Time 6:19 AM +03 4:56 PM +03
Civil Twilight 5:54 AM +03 5:21 PM +03
Nautical Twilight 5:26 AM +03 5:50 PM +03
Astronomical Twilight 4:58 AM +03 6:18 PM +03
Moon 10:26 PM +03 (1/3) 9:56 AM +03 (1/3)
Length of Visible Light 11h 26m
Length of Day
10h 36m
Waning Gibbous, 69% of the Moon is Illuminated
Jan 3
Waning Gibbous
Jan 5
Last Quarter
Jan 11
New
Jan 19
First Quarter
Jan 27
Full

Hourly Weather History & Observations

Time (+03) Temp. Heat Index Dew Point Humidity Pressure Visibility Wind Dir Wind Speed Gust Speed Precip Events Conditions
12:00 AM 68.0 °F - 60.8 °F 78% 30.09 in - NNW 6.9 mph - N/A   Clear
12:30 AM 68.0 °F - 60.8 °F 78% 30.09 in - NNW 5.8 mph - N/A   Clear
1:00 AM 68.0 °F - 60.8 °F 78% 30.09 in - Variable 1.2 mph - N/A   Clear
1:30 AM 68.0 °F - 60.8 °F 78% 30.09 in - Variable 2.3 mph - N/A   Clear
2:00 AM 66.2 °F - 60.8 °F 83% 30.06 in - WSW 3.5 mph - N/A   Clear
2:30 AM 66.2 °F - 60.8 °F 83% 30.06 in - WSW 4.6 mph - N/A   Clear
3:00 AM 65 °F - 59 °F 75% 30.09 in 9 mi WSW 3.5 mph - -  
3:00 AM 66.2 °F - 59.0 °F 78% 30.06 in - WSW 3.5 mph - N/A   Clear
3:30 AM 64.4 °F - 59.0 °F 83% 30.06 in - WSW 4.6 mph - N/A   Clear
4:00 AM 64.4 °F - 59.0 °F 83% 30.06 in - WSW 3.5 mph - N/A   Clear
4:30 AM 64.4 °F - 59.0 °F 83% 30.09 in - WSW 3.5 mph - N/A   Clear
5:00 AM 64.4 °F - 59.0 °F 83% 30.09 in - WSW 3.5 mph - N/A   Clear
5:30 AM 64.4 °F - 59.0 °F 83% 30.09 in - SW 3.5 mph - N/A   Clear
6:00 AM 64.4 °F - 59.0 °F 83% 30.09 in - Variable 2.3 mph - N/A   Clear
6:30 AM 64.4 °F - 59.0 °F 83% 30.12 in 4.3 mi Variable 2.3 mph - N/A   Unknown
7:00 AM 64.4 °F - 59.0 °F 83% 30.12 in - Variable 2.3 mph - N/A   Clear
7:30 AM 66.2 °F - 57.2 °F 73% 30.12 in 4.3 mi WSW 4.6 mph - N/A   Unknown
8:00 AM 68.0 °F - 57.2 °F 68% 30.12 in 4.3 mi WSW 5.8 mph - N/A   Unknown
8:30 AM 69.8 °F - 55.4 °F 60% 30.15 in 4.3 mi WSW 4.6 mph - N/A   Unknown
9:00 AM 71 °F - 55 °F 47% 30.17 in 5 mi WSW 5.8 mph - -   Smoke
9:00 AM 71.6 °F - 55.4 °F 57% 30.15 in 5.0 mi NE 5.8 mph - N/A   Unknown
10:00 AM 75.2 °F - 53.6 °F 47% 30.15 in - WSW 3.5 mph - N/A   Clear
10:30 AM 77.0 °F - 51.8 °F 41% 30.15 in - WNW 5.8 mph - N/A   Clear
11:00 AM 77.0 °F - 51.8 °F 41% 30.12 in - WNW 5.8 mph - N/A   Clear
11:30 AM 77.0 °F - 53.6 °F 44% 30.12 in - NW 9.2 mph - N/A   Clear
12:00 PM 77.0 °F - 53.6 °F 44% 30.12 in - NW 11.5 mph - N/A   Clear
12:30 PM 78.8 °F - 55.4 °F 44% 30.09 in - NNW 12.7 mph - N/A   Clear
1:00 PM 78.8 °F - 55.4 °F 44% 30.09 in - NW 10.4 mph - N/A   Clear
1:30 PM 78.8 °F - 53.6 °F 42% 30.09 in - NNW 11.5 mph - N/A   Clear
2:00 PM 80.6 °F 80.3 °F 53.6 °F 39% 30.09 in - NNW 9.2 mph - N/A   Clear
2:30 PM 78.8 °F - 50.0 °F 36% 30.06 in - NW 10.4 mph - N/A   Clear
3:00 PM 79 °F - 51 °F 28% 30.09 in 6 mi NW 8.1 mph - -  
3:00 PM 78.8 °F - 51.8 °F 39% 30.06 in - NW 8.1 mph - N/A   Clear
3:30 PM 78.8 °F - 50.0 °F 36% 30.09 in - NW 10.4 mph - N/A   Clear
4:00 PM 78.8 °F - 50.0 °F 36% 30.09 in - NNW 10.4 mph - N/A   Clear
4:30 PM 75.2 °F - 60.8 °F 61% 30.09 in - NNE 10.4 mph - N/A   Clear
5:00 PM 75.2 °F - 62.6 °F 65% 30.09 in - NNE 11.5 mph - N/A   Clear
5:30 PM 71.6 °F - 62.6 °F 73% 30.09 in - North 9.2 mph - N/A   Clear
6:00 PM 71.6 °F - 62.6 °F 73% 30.12 in - North 10.4 mph - N/A   Clear
6:30 PM 71.6 °F - 62.6 °F 73% 30.12 in - North 9.2 mph - N/A   Clear
7:00 PM 71.6 °F - 60.8 °F 69% 30.12 in - North 8.1 mph - N/A   Clear
7:30 PM 71.6 °F - 59.0 °F 64% 30.12 in - NNW 8.1 mph - N/A   Clear
8:00 PM 71.6 °F - 59.0 °F 64% 30.12 in - NNW 9.2 mph - N/A   Clear
8:30 PM 71.6 °F - 59.0 °F 64% 30.12 in - NNW 9.2 mph - N/A   Clear
9:00 PM 71 °F - 60 °F 61% 30.14 in 7 mi NNW 10.4 mph - -   Clear
9:00 PM 69.8 °F - 60.8 °F 73% 30.12 in - NNW 10.4 mph - N/A   Clear
9:30 PM 69.8 °F - 60.8 °F 73% 30.12 in - NNW 10.4 mph - N/A   Clear
10:00 PM 69.8 °F - 60.8 °F 73% 30.12 in - NNW 9.2 mph - N/A   Clear
10:30 PM 69.8 °F - 60.8 °F 73% 30.12 in - NNW 9.2 mph - N/A   Clear
11:00 PM 69.8 °F - 60.8 °F 73% 30.12 in - NNW 10.4 mph - N/A   Clear